Regional Weather Roundup
Issued by NWS Binghamton, NY

Home | Current Version | Previous Version | Text Only | Print | Product List | Glossary On
Versions: 1 2 3 4 5 6 7 8 9 10 11 12 13 14 15 16 17 18 19 20 21 22 23 24 25 26 27 28 29 30 31 32 33 34 35 36 37 38 39 40 41 42 43 44 45 46 47 48 49 50
000
ASUS41 KBGM 011210
RWRBGM
RWRBGM
BINGHAMTON REGIONAL WEATHER ROUNDUP
NATIONAL WEATHER SERVICE BINGHAMTON NY
800 AM EDT SAT AUG 01 2015

Note: "fair" indicates few or no clouds below 12,000 feet with no
significant weather and/or obstructions to visibility.

* = Station(s) that does not report precipitation, such as rain,
snow, etc, also no thunder or fog.

!NYZ009-015>018-022>025-036-037-044>046-055>057-062-011300
...CENTRAL NEW YORK...

CITY           SKY/WX    TMP DP  RH WIND       PRES   REMARKS
BINGHAMTON     SUNNY     65  61  87 W6        29.85R
CORTLAND       FAIR      64  63  94 SW3       29.85S
DANSVILLE      SUNNY     67  61  81 CALM      29.87R
ELMIRA         SUNNY     68  63  84 SW9       29.84R
ITHACA         MOSUNNY   68  63  84 W3        29.86R
HORNELL          N/A     63  61  94 CALM      29.90S
MONTICELLO     MOSUNNY   63  61  94 CALM      29.85S
NORWICH        MOSUNNY   64  63  94 CALM      29.84S
ONEONTA        MOSUNNY   64  63  94 CALM      29.85R
PENN YAN       SUNNY     69  58  67 W7        29.85R
ROME           SUNNY     65  63  93 CALM      29.81R
SIDNEY         CLOUDY    70  70 100 CALM      29.84R
SYRACUSE       MOSUNNY   70  62  76 W12       29.80R
$$

!PAZ038>040-043-044-047-048-072-011300
...NORTHEAST PENNSYLVANIA...

CITY           SKY/WX    TMP DP  RH WIND       PRES   REMARKS
HAZLETON       MOSUNNY   70  61  73 SW3       29.91R
SCRANTON       SUNNY     72  61  68 SW7       29.84R
$$
&&
KEY
WCI = WIND CHILL INDEX
VSB = VISIBILITY
HX  = HEAT INDEX
$$


USA.gov is the U.S. government's official web portal to all federal, state and local government web resources and services.